Location: Red Shale Campground
(45.5700°N, 106.1600°W)
Time: 08:16:47
(UTC-07:00)

Daily predictions for brighter satellites

Satellite Brightness Start Highest point End
(mag) Time Altitude Azimuth Time Altitude Azimuth Time Altitude Azimuth
AQUARIUS 4.2 17:24:13 10° SSE 17:28:43 83° ENE 17:33:14 10° NNW
Cosmos 1626 3.6 17:27:29 10° SE 17:30:04 18° E 17:32:39 10° NE
Cosmos 1980 3.8 17:24:49 10° SSW 17:30:30 86° ESE 17:36:13 10° NNE
CENTAUR R/B 3.5 17:25:52 10° WSW 17:31:52 45° NW 17:38:41 10° NNE
Cosmos 1151 Rocket 3.1 17:30:43 10° N 17:35:01 88° WSW 17:39:19 10° S
Resurs 01 Rocket 3.4 17:38:49 10° E 17:40:26 12° ENE 17:42:03 10° NE
Cosmos 1726 2.5 17:37:26 10° NNW 17:41:14 72° W 17:44:58 10° S
Cosmos 2058 2.9 17:38:08 10° S 17:42:09 57° E 17:46:12 10° NNE
MONITOR-E 4.3 17:40:09 10° SSE 17:43:14 52° ENE 17:46:21 10° N
Cosmos 2219 Rocket 3.0 17:40:05 10° SW 17:45:33 51° WNW 17:51:03 10° NNE
Cosmos 44 Rocket 4.4 17:42:18 10° WSW 17:47:10 43° NW 17:51:57 10° NNE
Meteor 1-11 4.3 17:43:39 10° S 17:49:19 71° E 17:55:06 10° NNE
FREGAT/IRIS 4.4 17:48:16 10° ESE 17:50:06 15° ENE 17:51:56 10° NNE
Lacrosse 5 rocket 3.6 17:47:11 10° WNW 17:50:23 26° SW 17:53:43 10° S
Cosmos 2279 Rocket 4.0 17:45:07 10° N 17:51:22 77° E 17:57:36 10° SSE
Iridium 4 Rocket 4.5 17:48:45 10° ESE 17:51:30 17° E 17:54:10 10° NE
CZ-4C R/B 4.2 17:47:20 10° NNW 17:51:49 19° NNE 17:56:24 11° ENE
Cosmos 1461 2.9 17:47:45 10° SSW 17:51:52 60° ESE 17:55:52 10° NE
Cosmos 1242 Rocket 4.1 17:50:04 10° NNE 17:52:14 16° ENE 17:54:25 10° ESE
Cosmos 304 Rocket 3.8 17:49:56 10° S 17:54:41 65° ESE 17:59:27 10° NNE
Cosmos 1455 2.8 17:51:18 10° N 17:54:48 34° ENE 17:58:18 10° SE
Cosmos 2333 Rocket 3.0 17:51:12 10° SW 17:56:42 53° WNW 18:02:16 10° NNE
BREEZE-M DEB (TANK) 1.4 17:55:11 10° SW 17:57:56 60° SSE 17:59:20 18° ENE
Cosmos 2278 Rocket 3.7 17:54:24 10° NW 17:59:42 41° WSW 18:04:58 10° S
Cosmos 1805 Rocket 3.7 17:55:59 10° S 18:00:20 55° E 18:04:43 10° NNE
Cosmos 1356 Rocket 3.7 17:57:35 10° SSE 18:01:19 40° E 18:05:05 10° NNE
SKYMED 2 3.7 17:57:38 10° NNE 18:01:55 55° E 18:06:10 10° S
Cosmos 2242 Rocket 4.2 18:02:02 10° N 18:06:05 34° ENE 18:10:08 10° SE
Coronas F rocket 2.7 18:07:03 10° SE 18:08:11 18° ESE 18:08:11 18° ESE
Thor Agena Rocket 3.9 18:04:18 10° N 18:09:31 70° WNW 18:14:38 10° SSW
Sich 1 3.3 18:06:46 10° SSE 18:11:01 47° E 18:15:16 10° NNE
BREEZE M DEB (TANK) 2.4 18:09:04 10° WNW 18:11:45 41° SSW 18:13:45 10° SE
Cosmos 1538 Rocket 4.1 18:07:03 10° S 18:12:17 63° ESE 18:17:36 10° NNE
Cosmos 1703 3.1 18:08:51 10° S 18:12:43 76° E 18:16:38 10° NNE
Nadezhda 4 Rocket 4.1 18:06:57 10° SSE 18:13:00 53° E 18:19:08 10° NNE
SJ-6B 3.2 18:17:08 10° SE 18:21:04 45° ENE 18:25:03 10° N
Cosmos 1633 Rocket 3.1 18:18:37 10° S 18:22:55 55° E 18:27:13 10° NNE
Cosmos 2237 Rocket 3.3 18:20:12 10° SW 18:25:30 41° NW 18:30:52 10° NNE
CZ-4 R/B 4.4 18:23:00 10° SW 18:25:45 18° W 18:28:33 10° NW
Cosmos 1680 Rocket 4.3 18:21:45 10° SSE 18:26:13 30° E 18:28:11 23° ENE
Cosmos 2369 Rocket 2.9 18:21:37 10° N 18:26:36 31° NE 18:28:56 23° E
BREEZE-M DEB (TANK) 3.9 18:28:12 10° S 18:29:02 16° SSE 18:29:02 16° SSE
Lacrosse 5 3.3 18:29:43 10° NW 18:33:51 24° N 18:35:34 20° NE
SL-16 R/B 2.4 18:28:56 10° SSW 18:34:35 75° WNW 18:40:17 10° NNE
Cosmos 1867 4.4 18:30:53 10° NNW 18:35:45 31° NE 18:37:08 27° ENE
Cosmos 1092 Rocket 4.0 18:30:17 10° S 18:36:27 58° E 18:42:40 10° NNE
NOSS 3-1 (C) 4.4 18:32:38 10° SSE 18:37:06 23° ESE 18:37:28 23° ESE
Abrixas 2.8 18:34:39 10° W 18:37:32 50° N 18:37:53 46° NNE
Meteor 1-28 Rocket 3.2 18:35:31 10° N 18:39:15 78° WNW 18:42:58 10° SSW
ALOS 2.5 18:37:14 10° SE 18:41:41 46° ENE 18:46:10 10° N
Cosmos 773 Rocket 3.9 18:38:12 10° SSW 18:43:22 78° ESE 18:47:52 14° NNE
Cosmos 1862 Rocket 3.7 18:40:31 10° N 18:44:47 48° ENE 18:48:59 10° SSE
BREEZE-M DEB (TANK) 1.8 18:42:30 10° WSW 18:44:47 77° SSE 18:44:55 73° ESE
ATLAS 3B R/B 4.1 18:40:27 10° NNW 18:45:30 20° NNE 18:47:34 18° NE
Cosmos 2084 Rocket 3.5 18:42:12 10° NNW 18:45:52 43° NE 18:45:57 43° NE
USA 215 3.2 18:44:05 19° ESE 18:48:58 77° NE 18:55:32 10° NW
COSMO-SKYMED 1 3.6 18:45:46 10° N 18:49:56 47° WNW 18:54:05 10° SW
Cosmos 292 Rocket 3.8 18:46:49 10° S 18:51:27 56° ESE 18:52:59 38° NE
METEOR-M 4.2 18:46:44 10° S 18:52:05 78° WSW 18:57:28 10° NNW
CZ-3A R/B 3.0 18:47:48 10° WNW 18:52:34 69° SW 18:58:45 10° SE
FENGYUN 3A 3.6 18:49:05 10° SSE 18:54:21 62° ENE 18:59:41 10° N
NOAA 12 4.5 18:51:30 10° S 18:56:42 66° WSW 19:01:59 10° NNW
Cosmos 2195 Rocket 4.5 18:52:38 10° SSE 18:58:35 56° E 19:04:35 10° NNE
Cosmos 1869 3.6 18:54:40 10° NNW 18:58:42 69° W 19:02:42 10° S
Cosmos 1666 Rocket 4.4 18:55:52 10° SSW 19:00:06 49° WNW 19:04:23 10° N
Cosmos 2112 Rocket 4.1 18:57:54 10° S 19:02:56 53° ESE 19:03:44 48° ENE
Lacrosse 4 Rocket 2.5 19:00:31 10° NW 19:04:22 42° WSW 19:08:12 10° S
Cosmos 1626 3.9 19:01:49 10° SW 19:05:12 32° WNW 19:08:37 10° N
Blok-2BL 3.7 19:02:22 10° NW 19:05:30 56° WSW 19:05:30 56° WSW
ATLAS 5 CENTAUR R/B 2.9 19:05:39 10° NNW 19:11:02 37° NE 19:11:05 37° NE
Cosmos 1933 Rocket 3.4 19:07:06 10° S 19:11:32 83° E 19:12:40 50° NNE
Cosmos 1943 3.8 19:06:18 10° S 19:10:29 37° SE 19:10:29 37° SE
Resurs 1-3 3.6 19:14:11 63° NNE 19:14:11 63° NNE 19:18:02 10° N
Resurs 01 Rocket 1.5 19:12:21 14° SSE 19:16:14 88° WSW 19:20:42 10° NNW
Cosmos 1417 Rocket 4.3 19:16:25 10° N 19:22:35 69° E 19:27:20 17° SSE
Cosmos 1242 Rocket 4.2 19:24:13 10° NNW 19:27:23 33° W 19:30:33 10° SSW
Cosmos 1943 Rocket 3.1 19:22:33 10° NNW 19:26:06 33° NNE 19:26:06 33° NNE
Tiangong 1 4.0 19:25:35 10° SW 19:25:53 12° SW 19:25:53 12° SW
Iridium 4 Rocket 4.1 19:26:59 10° SSW 19:31:09 43° W 19:35:11 10° N
Spot 2 Rocket 3.8 19:28:08 10° S 19:33:09 66° WSW 19:38:11 10° NNW
Cosmos 1470 Rocket 4.2 19:28:59 10° SSW 19:33:14 53° WNW 19:34:22 40° NNW
USA 229 DEB 3.9 19:29:37 10° SW 19:36:27 67° NW 19:39:27 36° NNE
USA 229 3.9 19:29:43 10° SW 19:36:33 67° NW 19:39:31 36° NNE
Cosmos 1627 Rocket 4.5 19:30:34 10° SSW 19:36:44 79° W 19:42:54 10° N
Cosmos 1655 Rocket 3.9 19:31:27 10° S 19:37:50 83° E 19:44:12 10° N
Cosmos 2056 Rocket 4.3 19:33:13 10° NNW 19:36:30 39° N 19:36:30 39° N
Cosmos 1603 4.1 19:34:03 10° SW 19:39:36 61° WNW 19:41:26 40° N
CZ-4C R/B 3.3 19:35:44 10° NNW 19:41:36 42° NNE 19:41:36 42° NNE
Cosmos 2263 4.4 19:39:04 10° NNW 19:43:44 61° N 19:43:44 61° N
Alouette 2 Rocket 4.5 19:40:58 10° S 19:49:21 79° ESE 19:49:21 79° ESE
NOSS 3-1 (A) 4.3 19:44:22 10° SSW 19:47:36 34° S 19:47:36 34° S
S3M 4.0 19:50:55 10° N 19:56:53 79° NNW 19:56:53 79° NNW
Cosmos 2026 Rocket 4.4 19:55:38 10° SSW 20:01:42 57° WNW 20:07:44 10° N
Cosmos 2369 Rocket 3.0 20:05:25 10° NW 20:10:49 48° WSW 20:10:49 48° WSW
Lacrosse 5 3.8 20:12:48 10° NW 20:14:47 23° NW 20:14:47 23° NW
NOSS 3-1 (C) 4.4 20:21:22 10° SW 20:24:57 39° WSW 20:24:57 39° WSW
USA 215 4.4 20:31:27 34° SW 20:32:19 35° SW 20:38:14 10° WNW
ATLAS 3B R/B 4.1 20:31:22 10° NNW 20:34:50 28° NNW 20:34:50 28° NNW
ATLAS 5 CENTAUR R/B 4.2 20:50:11 10° NW 20:52:40 26° NW 20:52:40 26° NW
